Location: Chand?puram
(16.7564°N, 80.2764°E)
Time: 15:09:20
(UTC+00:00)

Cosmos 676 Rocket - Pass Details

Date: 15 November 2025
Orbit: 750 x 778 km, 74.0° (Epoch: 12 December)

Event Time Altitude Azimuth Distance (km) Brightness Sun altitude
Rises 00:19:08 0° 348° (NNW) 3,210 6.9 -6.2°
Reaches altitude 10° 00:21:31 10° 349° (N) 2,280 6.2 -5.7°
Maximum altitude 00:26:41 80° 77° (ENE) 767 4.2 -4.5°
Drops below altitude 10° 00:31:49 10° 164° (SSE) 2,264 7.0 -3.3°
Sets 00:34:09 0° 165° (SSE) 3,185 7.7 -2.8°
